Regional Weather Roundup
Issued by NWS Northern Indiana

Home | Current Version | Previous Version | Graphics & Text | Print | Product List | Glossary On
Versions: 1 2 3 4 5 6 7 8 9 10 11 12 13 14 15 16 17 18 19 20 21 22 23 24 25 26 27 28 29 30 31 32 33 34 35 36 37 38 39 40 41 42 43 44 45 46 47 48 49 50
724
ASUS43 KIWX 182200
RWRIWX

KIWX WEATHER ROUNDUP
NATIONAL WEATHER SERVICE NORTHERN INDIANA
500 PM EST SUN FEB 18 2018

NOTE: "FAIR" INDICATES FEW OR NO CLOUDS BELOW 12,000 FEET WITH NO
SIGNIFICANT WEATHER AND/OR OBSTRUCTIONS TO VISIBILITY.

* THESE STATIONS ARE NOT UNDER NWS QUALITY CONTROL. THEY ALSO MAY NOT
  REPORT WEATHER SUCH AS PRECIPITATION OR FOG.

INZ001>027-182300-
NORTHERN INDIANA

CITY           SKY/WX    TMP DP  RH WIND       PRES   REMARKS
GARY*          PTSUNNY   39  28  65 SE12G23   30.10F
KNOX*          FAIR      36  30  80 S20       30.14F
SOUTH BEND     FAIR      34  26  72 SE17      30.14F WCI  23
GOSHEN         FAIR      37  28  70 SE13      30.18F
MONTICELLO*    FAIR      43  31  64 SE7       30.14F
WARSAW*        FAIR      36  30  80 SE10      30.18S
AUBURN*        FAIR      36  32  87 SE6       30.21F
FORT WAYNE     PTSUNNY   40  32  73 SE10      30.20F
PERU/GRISSOM   FAIR      42  36  80 SE13      30.15F

$$
INZ028>050-182300-
CENTRAL INDIANA

CITY           SKY/WX    TMP DP  RH WIND       PRES   REMARKS
LAFAYETTE      FAIR      44  32  62 SE13G20   30.13F
KOKOMO*        FAIR      42  33  70 SE14      30.17F
MUNCIE*        FAIR      45  30  55 SE12      30.18F
INDIANAPOLIS   CLOUDY    45  31  58 SE15      30.15F

$$
MIZ043>046-050>051-056>058-064>065-071>073-077>080-182300-
SOUTHWEST LOWER MICHIGAN

CITY           SKY/WX    TMP DP  RH WIND       PRES   REMARKS
BATTLE CREEK   FAIR      34  24  67 S14       30.17F WCI  25
BENTON HARBOR  FAIR      35  24  64 SE14G20   30.12F WCI  26
COLDWATER*     FAIR      33  26  73 SE12      30.18F WCI  25
HILLSDALE*     FAIR      32  27  80 SE8       30.19F WCI  25
HOLLAND        FAIR      38  23  55 S13       30.13F
GRAND RAPIDS   PTSUNNY   39  22  50 S14       30.15F
KALAMAZOO      FAIR      35  24  64 SE12      30.17F WCI  27
STURGIS*       FAIR      37  28  70 SE9       30.17F
THREE RIVERS*  FAIR      35  26  68 SE7       30.17F WCI  29

$$
OHZ001>008-015>018-024>025-182300-
NORTHWEST OHIO

CITY           SKY/WX    TMP DP  RH WIND       PRES   REMARKS
DEFIANCE       FAIR      38  29  70 SE12G18   30.23F
FINDLAY        FAIR      42  30  62 SE12      30.25F
TOLEDO EXPRESS FAIR      38  30  73 SE7       30.25F
TOLEDO METCALF FAIR      39  29  67 S10       30.27F
LIMA           FAIR      41  32  70 SE9       30.23F

$$
AND FOR LAKE MICHIGAN COASTAL AND OPEN LAKE BUOY OBSERVATIONS

STATION/POSITION TEMP    WIND        PRES    VSBY  WAVE
                 AIR SEA DIR/SP/G                  HT/PER
                 (F)     (DEG/KT/KT) (MB)    (MI)  (FT/S)
CALUMET HARBOR    36     140/  9/ 15 1018.4F
MICHIGAN CITY     36     140/ 19/ 25   N/A
BURNS HARBOR      36     150/ 11/ 20 1020.0F
SAINT JOSEPH      37     160/  6/ 12 1021.0

$$
&&




USA.gov is the U.S. government's official web portal to all federal, state and local government web resources and services.